Weather History for KGOO - April, 2014

Change the Weather History Date:

Monday, April 28, 2014

  Actual Average (KBLU) Record (KBLU)
Temperature  
Mean Temperature 52 °F -  
Max Temperature 62 °F 55 °F 77 °F (1981)
Min Temperature 41 °F 39 °F 19 °F (1967)
Degree Days  
Heating Degree Days 14    
Growing Degree Days 2 (Base 50)    
Moisture  
Dew Point 36 °F    
Average Humidity 56    
Maximum Humidity 93    
Minimum Humidity 24    
Precipitation  
Precipitation 0.00 in - - ()
Sea Level Pressure  
Sea Level Pressure 30.18 in    
Wind  
Wind Speed 4 mph (NNW)    
Max Wind Speed 13 mph    
Max Gust Speed 20 mph    
Visibility 10 miles    
Events      
Averages and records for this station are not official NWS values.
T = Trace of Precipitation, MM = Missing Value Source: NWS Daily Summary

Daily Weather History Graph

Daily Weather History Graph

Search for Another Location

Airport or City:

Trip Planner

Search our weather history database for the weather conditions in past years. The results will help you decide how hot, cold, wet, or windy it might be!

Date:

Astronomy

Apr. 28, 2014 Rise Set
Actual Time 6:09 AM PDT 7:54 PM PDT
Civil Twilight 5:40 AM PDT 8:23 PM PDT
Nautical Twilight 5:05 AM PDT 8:58 PM PDT
Astronomical Twilight 4:28 AM PDT 9:35 PM PDT
Moon 5:50 AM PDT (4/28) 7:38 PM PDT (4/28)
Length of Visible Light 14h 42m
Length of Day
13h 45m
Waning Crescent, 0% of the Moon is Illuminated
Apr 28
Waning Crescent
Apr 28
New
May 6
First Quarter
May 14
Full
May 21
Last Quarter

Hourly Weather History & Observations

Time (PDT) Temp. Windchill Dew Point Humidity Pressure Visibility Wind Dir Wind Speed Gust Speed Precip Events Conditions
12:15 AM 44.6 °F - 41.0 °F 87% 30.12 in 10.0 mi Calm Calm - N/A   Clear
12:35 AM 44.6 °F - 39.2 °F 81% 30.13 in 9.0 mi Calm Calm - N/A   Clear
12:55 AM 44.6 °F - 41.0 °F 87% 30.13 in 10.0 mi Calm Calm - N/A   Clear
1:15 AM 44.6 °F - 41.0 °F 87% 30.13 in 8.0 mi Calm Calm - N/A   Clear
1:35 AM 42.8 °F - 41.0 °F 93% 30.13 in 8.0 mi Calm Calm - N/A   Clear
1:55 AM 42.8 °F - 39.2 °F 87% 30.12 in 10.0 mi Calm Calm - N/A   Clear
2:15 AM 44.6 °F - 39.2 °F 81% 30.13 in 10.0 mi Calm Calm - N/A   Clear
2:35 AM 42.8 °F 41.1 °F 39.2 °F 87% 30.13 in 10.0 mi North 3.5 mph - N/A   Clear
2:55 AM 42.8 °F - 39.2 °F 87% 30.13 in 10.0 mi Calm Calm - N/A   Clear
3:15 AM 42.8 °F - 39.2 °F 87% 30.13 in 10.0 mi Calm Calm - N/A   Clear
3:35 AM 41.0 °F - 39.2 °F 93% 30.13 in 10.0 mi Calm Calm - N/A   Clear
3:55 AM 41.0 °F 38.0 °F 39.2 °F 93% 30.13 in 10.0 mi NNE 4.6 mph - N/A   Clear
4:15 AM 41.0 °F 39.0 °F 39.2 °F 93% 30.13 in 10.0 mi NNE 3.5 mph - N/A   Clear
4:35 AM 42.8 °F 40.1 °F 39.2 °F 87% 30.13 in 10.0 mi NNE 4.6 mph - N/A   Clear
4:55 AM 42.8 °F - 39.2 °F 87% 30.14 in 10.0 mi Calm Calm - N/A   Clear
5:15 AM 42.8 °F 41.1 °F 37.4 °F 81% 30.14 in 10.0 mi NE 3.5 mph - N/A   Clear
5:35 AM 44.6 °F 43.1 °F 37.4 °F 76% 30.14 in 10.0 mi NE 3.5 mph - N/A   Clear
5:55 AM 42.8 °F 41.1 °F 37.4 °F 81% 30.14 in 10.0 mi NE 3.5 mph - N/A   Clear
6:15 AM 42.8 °F 41.1 °F 37.4 °F 81% 30.15 in 10.0 mi NNE 3.5 mph - N/A   Clear
6:35 AM 42.8 °F 40.1 °F 37.4 °F 81% 30.16 in 10.0 mi NNE 4.6 mph - N/A   Clear
6:55 AM 42.8 °F 41.1 °F 37.4 °F 81% 30.17 in 10.0 mi NNE 3.5 mph - N/A   Clear
7:15 AM 46.4 °F - 35.6 °F 66% 30.16 in 10.0 mi Calm Calm - N/A   Clear
7:35 AM 48.2 °F - 33.8 °F 58% 30.17 in 10.0 mi Calm Calm - N/A   Clear
7:55 AM 50.0 °F - 33.8 °F 54% 30.17 in 10.0 mi Calm Calm - N/A   Clear
8:15 AM 50.0 °F - 30.2 °F 47% 30.18 in 10.0 mi Calm Calm - N/A   Clear
8:35 AM 51.8 °F - 32.0 °F 47% 30.19 in 10.0 mi NW 4.6 mph - N/A   Clear
9:15 AM 53.6 °F - 32.0 °F 44% 30.20 in 10.0 mi NW 4.6 mph - N/A   Clear
9:35 AM 53.6 °F - 26.6 °F 35% 30.19 in 10.0 mi NNW 4.6 mph - N/A   Clear
9:55 AM 55.4 °F - 30.2 °F 38% 30.20 in 10.0 mi NW 5.8 mph - N/A   Clear
10:15 AM 55.4 °F - 32.0 °F 41% 30.20 in 10.0 mi North 4.6 mph - N/A   Clear
10:35 AM 55.4 °F - 30.2 °F 38% 30.20 in 10.0 mi North 4.6 mph - N/A   Clear
10:55 AM 57.2 °F - 32.0 °F 38% 30.21 in 10.0 mi NW 8.1 mph - N/A   Clear
11:15 AM 57.2 °F - 32.0 °F 38% 30.21 in 10.0 mi WNW 5.8 mph - N/A   Clear
11:35 AM 59.0 °F - 32.0 °F 36% 30.21 in 10.0 mi NW 9.2 mph - N/A   Clear
11:55 AM 59.0 °F - 33.8 °F 39% 30.21 in 10.0 mi West 8.1 mph 16.1 mph N/A   Clear
12:15 PM 59.0 °F - 37.4 °F 45% 30.21 in 10.0 mi West 10.4 mph - N/A   Clear
12:55 PM 59.0 °F - 39.2 °F 48% 30.20 in 10.0 mi NW 10.4 mph - N/A   Clear
1:35 PM 59.0 °F - 37.4 °F 45% 30.19 in 10.0 mi West 8.1 mph - N/A   Clear
1:55 PM 62.6 °F - 39.2 °F 42% 30.19 in 10.0 mi West 9.2 mph - N/A   Clear
2:15 PM 62.6 °F - 37.4 °F 39% 30.20 in 10.0 mi WNW 8.1 mph - N/A   Clear
2:35 PM 62.6 °F - 39.2 °F 42% 30.20 in 10.0 mi WNW 8.1 mph - N/A   Clear
2:55 PM 62.6 °F - 39.2 °F 42% 30.20 in 10.0 mi WNW 12.7 mph - N/A   Clear
3:15 PM 62.6 °F - 39.2 °F 42% 30.20 in 10.0 mi WNW 12.7 mph 19.6 mph N/A   Clear
3:35 PM 62.6 °F - 37.4 °F 39% 30.20 in 10.0 mi WNW 11.5 mph - N/A   Clear
3:55 PM 62.6 °F - 37.4 °F 39% 30.20 in 10.0 mi WNW 10.4 mph 16.1 mph N/A   Clear
4:15 PM 62.6 °F - 37.4 °F 39% 30.20 in 10.0 mi WNW 9.2 mph - N/A   Clear
4:35 PM 62.6 °F - 37.4 °F 39% 30.20 in 10.0 mi NW 11.5 mph - N/A   Clear
4:55 PM 62.6 °F - 37.4 °F 39% 30.20 in 10.0 mi WNW 9.2 mph - N/A   Clear
5:15 PM 62.6 °F - 37.4 °F 39% 30.19 in 10.0 mi NNW 8.1 mph - N/A   Clear
5:35 PM 62.6 °F - 37.4 °F 39% 30.20 in 10.0 mi NW 10.4 mph - N/A   Clear
5:55 PM 62.6 °F - 37.4 °F 39% 30.20 in 10.0 mi WNW 11.5 mph - N/A   Clear
6:15 PM 62.6 °F - 37.4 °F 39% 30.20 in 10.0 mi WNW 11.5 mph - N/A   Clear
6:35 PM 62.6 °F - 37.4 °F 39% 30.20 in 10.0 mi WNW 11.5 mph - N/A   Clear
6:55 PM 60.8 °F - 35.6 °F 39% 30.20 in 10.0 mi NW 9.2 mph - N/A   Clear
7:15 PM 59.0 °F - 35.6 °F 42% 30.20 in 10.0 mi NW 10.4 mph - N/A   Clear
7:55 PM 57.2 °F - 35.6 °F 44% 30.20 in 10.0 mi North 9.2 mph - N/A   Clear
8:15 PM 57.2 °F - 35.6 °F 44% 30.21 in 10.0 mi North 9.2 mph - N/A   Clear
8:35 PM 57.2 °F - 35.6 °F 44% 30.21 in 10.0 mi North 9.2 mph - N/A   Clear
8:55 PM 57.2 °F - 35.6 °F 44% 30.22 in 10.0 mi North 8.1 mph 16.1 mph N/A   Clear
9:15 PM 57.2 °F - 35.6 °F 44% 30.22 in 10.0 mi North 8.1 mph - N/A   Clear
9:35 PM 57.2 °F - 35.6 °F 44% 30.23 in 10.0 mi North 5.8 mph - N/A   Clear
9:55 PM 57.2 °F - 37.4 °F 48% 30.24 in 10.0 mi NNE 4.6 mph - N/A   Clear
10:15 PM 57.2 °F - 37.4 °F 48% 30.24 in 10.0 mi NE 6.9 mph - N/A   Clear
10:35 PM 57.2 °F - 39.2 °F 51% 30.24 in 10.0 mi NNE 4.6 mph - N/A   Clear
10:55 PM 57.2 °F - 39.2 °F 51% 30.24 in 10.0 mi NE 4.6 mph - N/A   Clear
11:15 PM 59.0 °F - 33.8 °F 39% 30.24 in 10.0 mi East 8.1 mph - N/A   Clear
11:35 PM 60.8 °F - 26.6 °F 27% 30.23 in 10.0 mi ENE 11.5 mph 17.3 mph N/A   Clear
11:55 PM 62.6 °F - 24.8 °F 24% 30.23 in 10.0 mi ENE 10.4 mph 17.3 mph N/A   Clear